Location: Mohawk View
(42.7837°N, 73.7885°W)
Time: 13:18:48
(UTC+00:00)

Cosmos 1898 Rocket - Pass Details

Date: 17 June 2021
Orbit: 754 x 783 km, 74.0° (Epoch: 30 July)

Event Time Altitude Azimuth Distance (km) Brightness Sun altitude
Rises 07:18:30 0° 329° (NNW) 3,244 7.1 -16.1°
Reaches altitude 10° 07:21:10 10° 318° (NW) 2,308 6.1 -15.9°
Maximum altitude 07:25:33 28° 261° (W) 1,404 4.5 -15.4°
Enters shadow 07:27:14 23° 230° (SW) 1,565 4.5 -15.2°
